| time (UTC) | temp C | wind direction | speed KPH | gust KPH | rain 1hr cm | rain 24hr cm | rain mn cm | humidity % | barometer mb |
| 20260504013056 | 10 | 209 | 0.0 | 0.0 | 0.00 | 0.00 | 0.00 | 61 | 1016.2 |
| 20260504011549 | 10 | 209 | 0.0 | 0.0 | 0.00 | 0.00 | 0.00 | 59 | 1016.1 |
| 20260504010051 | 11 | 209 | 0.0 | 0.0 | 0.00 | 0.00 | 0.00 | 57 | 1016.2 |
| 20260504004539 | 11 | 209 | 0.0 | 0.0 | 0.00 | 0.00 | 0.00 | 54 | 1016.1 |
| 20260504003041 | 12 | 209 | 0.0 | 0.0 | 0.00 | 0.00 | 0.00 | 50 | 1015.9 |
| 20260504001540 | 13 | 209 | 0.0 | 0.0 | 0.00 | 0.00 | 0.00 | 51 | 1015.9 |
| 20260504000039 | 13 | 209 | 0.0 | 0.0 | 0.00 | 0.00 | 0.00 | 46 | 1015.6 |
| 20260503234525 | 14 | 209 | 0.0 | 0.0 | 0.00 | 0.00 | 0.00 | 41 | 1015.5 |
| 20260503233024 | 15 | 209 | 0.0 | 0.0 | 0.00 | 0.00 | 0.00 | 39 | 1015.4 |
| 20260503231520 | 15 | 209 | 0.0 | 0.0 | 0.00 | 0.00 | 0.00 | 37 | 1015.3 |
| 20260503230017 | 16 | 209 | 0.0 | 0.0 | 0.00 | 0.00 | 0.00 | 35 | 1015.3 |
| 20260503224514 | 16 | 209 | 0.0 | 0.0 | 0.00 | 0.00 | 0.00 | 32 | 1015.5 |
| 20260503223011 | 16 | 274 | 0.0 | 3.2 | 0.00 | 0.00 | 0.00 | 31 | 1015.5 |
| 20260503221508 | 17 | 219 | 0.0 | 6.4 | 0.00 | 0.00 | 0.00 | 30 | 1015.6 |
| 20260503220005 | 18 | 152 | 0.0 | 1.6 | 0.00 | 0.00 | 0.00 | 28 | 1015.6 |
| 20260503214518 | 18 | 333 | 0.0 | 3.2 | 0.00 | 0.00 | 0.00 | 28 | 1015.6 |
| 20260503213005 | 19 | 331 | 0.0 | 4.8 | 0.00 | 0.00 | 0.00 | 25 | 1015.5 |
| 20260503211506 | 20 | 331 | 0.0 | 4.8 | 0.00 | 0.00 | 0.00 | 25 | 1015.7 |
| 20260503210013 | 20 | 314 | 0.0 | 8.0 | 0.00 | 0.00 | 0.00 | 25 | 1015.6 |
| 20260503204509 | 20 | 163 | 1.6 | 4.8 | 0.00 | 0.00 | 0.00 | 27 | 1015.8 |
| 20260503203003 | 20 | 346 | 0.0 | 9.7 | 0.00 | 0.00 | 0.00 | 25 | 1015.7 |
| 20260503201503 | 21 | 319 | 0.0 | 3.2 | 0.00 | 0.00 | 0.00 | 24 | 1015.8 |
| 20260503200001 | 21 | 338 | 0.0 | 6.4 | 0.00 | 0.00 | 0.00 | 25 | 1016.0 |
| 20260503194626 | 20 | 278 | 1.6 | 6.4 | 0.00 | 0.00 | 0.00 | 25 | 1016.4 |
| 20260503194501 | 20 | 267 | 1.6 | 6.4 | 0.00 | 0.00 | 0.00 | 24 | 1016.3 |
| 20260503193100 | 20 | 342 | 0.0 | 6.4 | 0.00 | 0.00 | 0.00 | 26 | 1016.6 |
| 20260503191604 | 20 | 355 | 0.0 | 8.0 | 0.00 | 0.00 | 0.00 | 24 | 1016.7 |
| 20260503184600 | 19 | 184 | 0.0 | 11.3 | 0.00 | 0.00 | 0.00 | 27 | 1017.1 |
| 20260503183106 | 20 | 223 | 0.0 | 4.8 | 0.00 | 0.00 | 0.00 | 25 | 1017.3 |
| 20260503181556 | 20 | 250 | 0.0 | 8.0 | 0.00 | 0.00 | 0.00 | 27 | 1017.5 |
| 20260503180105 | 19 | 311 | 1.6 | 4.8 | 0.00 | 0.00 | 0.00 | 27 | 1017.5 |
| 20260503174551 | 19 | 307 | 1.6 | 8.0 | 0.00 | 0.00 | 0.00 | 27 | 1017.7 |
| 20260503173137 | 18 | 21 | 0.0 | 11.3 | 0.00 | 0.00 | 0.00 | 29 | 1017.6 |
| 20260503171548 | 17 | 256 | 1.6 | 12.9 | 0.00 | 0.00 | 0.00 | 30 | 1017.9 |
| 20260503100113 | 5 | 46 | 0.0 | 0.0 | 0.00 | 0.00 | 0.00 | 73 | 1016.7 |
| 20260503081552 | 7 | 46 | 0.0 | 0.0 | 0.00 | 0.00 | 0.00 | 63 | 1015.7 |
| 20260503071541 | 8 | 46 | 0.0 | 3.2 | 0.00 | 0.00 | 0.00 | 59 | 1015.1 |
| 20260503054533 | 10 | 348 | 3.2 | 11.3 | 0.00 | 0.00 | 0.00 | 58 | 1014.5 |
| 20260503051520 | 10 | 45 | 0.0 | 0.0 | 0.00 | 0.00 | 0.00 | 59 | 1014.4 |
| 20260503050019 | 10 | 45 | 0.0 | 3.2 | 0.00 | 0.00 | 0.00 | 59 | 1014.3 |
| 20260503044534 | 10 | 113 | 0.0 | 0.0 | 0.00 | 0.00 | 0.00 | 59 | 1014.3 |
| 20260503041518 | 10 | 113 | 0.0 | 0.0 | 0.00 | 0.00 | 0.00 | 59 | 1014.3 |
| 20260503040017 | 10 | 113 | 0.0 | 0.0 | 0.00 | 0.00 | 0.00 | 60 | 1014.2 |
| 20260503034518 | 10 | 113 | 0.0 | 0.0 | 0.00 | 0.00 | 0.00 | 62 | 1014.2 |
| 20260503031515 | 10 | 113 | 0.0 | 0.0 | 0.00 | 0.00 | 0.00 | 65 | 1014.1 |
| 20260503030017 | 10 | 113 | 0.0 | 0.0 | 0.00 | 0.00 | 0.00 | 65 | 1014.0 |
| 20260503024513 | 10 | 113 | 0.0 | 0.0 | 0.00 | 0.00 | 0.00 | 70 | 1014.1 |
| 20260503021511 | 10 | 113 | 0.0 | 0.0 | 0.00 | 0.00 | 0.00 | 68 | 1014.0 |
| 20260503020009 | 11 | 113 | 0.0 | 0.0 | 0.00 | 0.00 | 0.00 | 69 | 1014.0 |
| 20260503014506 | 11 | 113 | 0.0 | 0.0 | 0.00 | 0.00 | 0.00 | 67 | 1013.8 |